Lexington Weather

Lexington, Massachusetts, USA

29°F
4/1/2020 4:16am 
  • Lexington Conditions: Clear
  • Temperature: 29.1°F / -1.6°CColder 0.4°F than last hour.
  • Dew Point: 27.1°FDecreased 0.4°Fsince last hour.
  • Relative Humidity: 92
  • Wind: Wind from NW NW 1 mph, 10-min avg: 1 mph, gust: 3 mph
  • Barometer: 29.87 in Steady
  • Visibility: 10 miles
  • Snow Today: 0.0 in
  •   

Regional Weather Roundup
for Boston / Norton, MA

        
000
ASUS41 KBOX 010504
RWRBOX

REGIONAL WEATHER ROUNDUP
NATIONAL WEATHER SERVICE BOSTON/NORTON MA
100 AM EDT WED APR 01 2020

NOTE:  "FAIR" INDICATES FEW OR NO CLOUDS BELOW 12,000 FEET WITH NO 
SIGNIFICANT WEATHER AND/OR OBSTRUCTIONS TO VISIBILITY.

MAZALL-010600-
EASTERN MASSACHUSETTS
  
CITY           SKY/WX    TMP DP  RH WIND       PRES   REMARKS
BOSTON         FAIR      33  27  78 NW7       29.97F WCI  27          
BEVERLY        FAIR      29  25  85 NW3       29.95F                  
LAWRENCE       FAIR      30  27  88 CALM      29.98F                  
BEDFORD        FAIR      30  26  85 CALM      29.96F                  
BLUE HILL        N/A     29  27  92 NW8       29.92F WCI  21          
NORWOOD        FAIR      30  25  81 CALM      29.97F                  
MARSHFIELD     FAIR      30  28  93 W3        29.95F                  
PLYMOUTH       FAIR      29  26  89 NW3       29.94F                  
TAUNTON        FAIR      26  23  88 CALM      29.95F                  
NEW BEDFORD    FAIR      28  27  96 CALM      29.95F                  
$$

MAZALL-010600-
CAPE COD AND THE ISLANDS
  
CITY           SKY/WX    TMP DP  RH WIND       PRES   REMARKS
FALMOUTH       PTCLDY    28  27  93 CALM      29.94F                  
HYANNIS        CLOUDY    32  27  81 CALM      29.92F                  
CHATHAM        CLOUDY    38  29  70 NE7       29.94F                  
PROVINCETOWN   CLOUDY    36  31  82 E3        29.96F                  
NANTUCKET      CLOUDY    39  30  70 NE12      29.92F WCI  32          
MARTHAS VNYRD  CLOUDY    36  30  79 N6        29.94F WCI  31          
$$
 
MAZALL-010600-
CENTRAL AND WESTERN MASSACHUSETTS
  
CITY           SKY/WX    TMP DP  RH WIND       PRES   REMARKS
WORCESTER      FAIR      31  24  75 N5        29.92F WCI  26          
FITCHBURG      FAIR      30  26  85 N5        29.97F WCI  25          
ORANGE         CLOUDY    31  29  92 CALM      29.96F                  
SPRINGFIELD    CLOUDY    35  28  73 CALM      29.94F                  
WESTFIELD      CLOUDY    36  27  69 CALM      29.95F                  
NORTH ADAMS    CLOUDY    32  30  92 E3        29.93F                  
PITTSFIELD     CLOUDY    32  29  88 NE5       29.89F WCI  27          
$$
 
RIZALL-010600-
RHODE ISLAND
  
CITY           SKY/WX    TMP DP  RH WIND       PRES   REMARKS
PROVIDENCE     FAIR      32  26  78 N6        29.95F WCI  26          
NEWPORT        FAIR      32  26  78 N3        29.94F                  
BLOCK ISLAND   CLOUDY    35  29  78 NE9G17    29.93F WCI  28          
SMITHFIELD     FAIR      27  26  96 N5        29.94F WCI  22          
WESTERLY       FAIR      34  26  72 NE3       29.94F                  
$$
 
CTZALL-010600-
CONNECTICUT
  
CITY           SKY/WX    TMP DP  RH WIND       PRES   REMARKS
BRADLEY INTL   MOCLDY    37  30  75 E6        29.95F                  
HARTFORD       CLOUDY    38  31  76 E3        29.94F                  
BRIDGEPORT     CLOUDY    40  32  73 E6        29.94F                  
DANBURY        FAIR      36  31  82 VRB3      29.92F                  
GROTON         FAIR      31  27  85 NE6       29.94F WCI  25          
NEW HAVEN      CLOUDY    41  32  70 E6        29.93F                  
CHESTER        MOCLDY    32  30  93 N3        29.92F                  
MERIDEN        CLOUDY    36  32  85 CALM      29.94F                  
WILLIMANTIC    FAIR      33  29  85 NE3       29.94F                  
OXFORD         CLOUDY    36  33  89 VRB3      29.92S                  
$$

MEZ002-015-021-024-NHZ003-005-008-011-012-014-VTZ005-008-010600-
NORTHERN NEW ENGLAND
  
CITY           SKY/WX    TMP DP  RH WIND       PRES   REMARKS
PORTLAND ME    FAIR      32  26  78 CALM      29.96F                  
BANGOR ME      CLOUDY    35  23  61 N8        29.99F WCI  29          
CONCORD NH     FAIR      27  24  89 CALM      29.96F                  
MANCHESTER NH  FAIR      32  27  81 N3        29.95F                  
NASHUA NH      FAIR      29  29 100 CALM      29.97F                  
PORTSMOUTH NH  CLEAR     30  28  91 NW6       29.94  WCI  24          
JAFFREY NH     FAIR      30  29  96 CALM      29.93F                  
KEENE NH       CLOUDY    30  29  96 CALM      29.96F                  
BURLINGTON VT  FAIR      30  19  63 CALM      29.96F                  
MT. WASHINGTON NOT AVBL                                               
$$

NYZ052-076-010600-
EASTERN NEW YORK
  
CITY           SKY/WX    TMP DP  RH WIND       PRES   REMARKS
ALBANY         MOCLDY    39  23  52 N5        29.93F                  
NEW YORK CITY  CLOUDY    42  31  64 E8        29.91F                  
$$
 
ANZALL-010600-
MARINE OBSERVATIONS
  
STATION/POSITION TIME  TEMP    WIND        PRES    VSBY  WAVE
                       AIR SEA DIR/SP/G                  HT/PER
                 (UTC) (F)     (DEG/KT/KT) (MB)    (MI)  (FT/S)
BOSTON BUOY      0450   37 43  340/ 10/ 10 1013.9F         5/ 9
BUZZARDS BAY     0400           80/ 12/ 14 1015.8F
NANTUCKET SOUND  0440                        N/A           1/ 4
MASS BAY-STELLWA 0404   37 42  360/ 10/ 10 1012.9F  1 7/8  6/ 8
ISLE OF SHOALS   0400   35     320/ 12/ 12 1014.5F
S OF BLOCK IS    0430      43                N/A           5/11
$$

......................KEY.........................
  SKY/WX - SKY CONDITION/PRESENT WEATHER
  TMP    - TEMPERATURE IN FAHRENHEIT
  DWPT   - DEWPOINT IN FAHRENHEIT
  RH     - RELATIVE HUMIDITY IN PERCENT
  WIND   - DIRECTION AND SPEED IN MPH
  PRES   - MEAN SEA LEVEL PRESSURE IN INCHES OF HG
  WCI    - WIND CHILL INDEX
  VSB    - VISIBILITY IN MILES
  HX     - HEAT INDEX
  TC     - TEMPERATURE IN CELSIUS
  VRB    - VARIABLE WIND DIRECTION
  N/A    - NOT AVAILABLE
  
      

Other recent Regional Weather Roundups

Wed Apr 1, 3:04am

Wed Apr 1, 2:04am

Wed Apr 1, 1:04am

Wed Apr 1, 12:04am

Tue Mar 31, 11:04pm

Tue Mar 31, 10:04pm

Tue Mar 31, 9:04pm

Tue Mar 31, 8:04pm

Tue Mar 31, 7:04pm

Tue Mar 31, 6:04pm

Tue Mar 31, 4:04pm

Tue Mar 31, 3:04pm

Tue Mar 31, 2:04pm

Tue Mar 31, 1:04pm

Tue Mar 31, 12:05pm

Tue Mar 31, 11:04am

Tue Mar 31, 10:05am

Tue Mar 31, 9:04am

Tue Mar 31, 8:04am

Tue Mar 31, 7:05am

Tue Mar 31, 6:04am

Tue Mar 31, 5:04am

Tue Mar 31, 4:04am

Tue Mar 31, 3:04am

Tue Mar 31, 2:04am

Tue Mar 31, 1:04am

Tue Mar 31, 12:04am

Mon Mar 30, 11:04pm

Mon Mar 30, 10:04pm

Mon Mar 30, 9:05pm

Mon Mar 30, 8:04pm

Mon Mar 30, 7:04pm

Mon Mar 30, 6:04pm

Mon Mar 30, 5:05pm

Mon Mar 30, 4:04pm

Mon Mar 30, 3:04pm

Mon Mar 30, 2:04pm

Mon Mar 30, 1:04pm

Mon Mar 30, 12:04pm

Mon Mar 30, 11:04am

Mon Mar 30, 10:04am

Mon Mar 30, 9:04am

Mon Mar 30, 8:04am

Mon Mar 30, 7:04am

Mon Mar 30, 6:04am

Mon Mar 30, 5:04am

Mon Mar 30, 4:04am

Mon Mar 30, 3:05am

Mon Mar 30, 2:04am

Mon Mar 30, 1:04am

Mon Mar 30, 12:04am

Sun Mar 29, 11:04pm

Sun Mar 29, 10:05pm

Sun Mar 29, 9:04pm

Sun Mar 29, 8:04pm

Sun Mar 29, 7:04pm

Sun Mar 29, 6:04pm

Sun Mar 29, 5:05pm

Sun Mar 29, 4:04pm

Sun Mar 29, 3:04pm

Sun Mar 29, 2:04pm

Sun Mar 29, 1:05pm

Sun Mar 29, 12:04pm

Sun Mar 29, 11:04am

Sun Mar 29, 10:04am

Sun Mar 29, 9:04am

Sun Mar 29, 8:04am

Sun Mar 29, 7:04am

Sun Mar 29, 6:04am

Sun Mar 29, 5:04am

Meta data:

ID: 9241506c-afa1-4d78-bd47-9cd96b9d4ec7
Link: https://api.weather.gov/products/9241506c-afa1-4d78-bd47-9cd96b9d4ec7